Wind_Speed
28 29 30 30 30 30 29 28 27 26 26 26 25 24 23 23 22 21 20 19 18 17 16 15 14 13 12 11 10 9 9 9 8 7 7 8 9 9 11 12 13 14 16 17 17 16 15 14 13 12 12 11 9 9 8 7 6 6 5 5 5 5 6 5 4 4 5 5 5 6 6 6 6 7 8 9 10 10 10 10 10 9 9 10 10
27 27 27 28 28 29 29 29 28 27 27 27 26 26 25 24 23 23 23 21 19 18 17 16 16 15 14 13 12 10 9 8 8 7 6 6 6 6 6 7 8 11 13 15 17 17 17 17 16 15 15 14 12 11 11 10 9 8 7 7 6 6 6 6 5 5 5 7 6 5 5 5 6 7 8 9 10 11 11 11 12 11 11 11 11
24 24 25 26 27 28 29 30 30 29 29 28 27 27 26 25 24 25 24 23 21 19 18 18 17 17 16 15 14 13 11 10 9 7 6 5 5 4 5 5 5 7 9 11 14 17 18 18 18 18 18 17 15 14 14 13 13 11 10 9 9 9 9 10 9 8 7 9 10 10 9 8 7 8 8 9 10 11 11 12 13 13 13 13 12
22 23 24 25 26 28 29 30 31 31 30 30 29 28 27 26 26 25 24 24 24 21 20 19 18 18 17 16 16 15 13 12 10 9 7 7 6 6 7 7 7 7 7 9 11 14 17 18 19 19 20 20 18 17 16 16 15 14 13 13 12 12 13 13 13 13 12 11 11 13 14 13 11 11 12 11 11 12 13 13 14 14 14 15 14
22 22 22 23 25 27 29 30 31 31 31 30 29 28 28 27 27 26 25 25 25 23 22 21 20 19 18 16 16 15 14 14 13 12 10 10 10 10 10 10 9 9 9 10 11 13 14 16 17 20 22 22 21 20 19 18 18 18 17 16 15 15 16 17 17 17 17 14 12 14 17 17 15 14 15 15 15 15 14 14 15 16 16 17 16
22 22 22 22 24 26 27 29 29 30 30 30 29 29 29 28 27 27 26 25 25 25 24 23 22 20 18 16 16 15 15 15 15 14 13 13 12 12 12 12 12 12 12 13 13 14 14 14 16 19 22 23 22 22 22 22 22 21 20 19 19 19 20 21 21 21 21 19 17 17 19 20 19 18 17 18 18 17 17 16 17 18 18 19 19
24 23 23 22 23 24 25 27 27 28 29 29 29 29 29 29 28 27 26 25 25 25 25 24 23 22 20 18 17 16 16 16 16 15 14 14 13 13 13 14 15 15 15 16 16 17 17 16 16 18 20 21 22 22 23 24 25 25 24 24 23 24 24 23 24 25 25 24 23 21 21 22 23 22 20 21 21 20 19 19 19 20 20 21 21
25 24 23 23 23 23 22 23 24 25 27 27 28 28 28 28 28 27 26 26 25 25 25 24 24 22 21 20 19 18 18 18 17 16 15 14 14 14 15 16 17 18 18 18 18 19 19 18 18 18 19 20 20 21 23 24 26 27 27 27 28 28 27 27 28 28 28 28 28 26 25 25 26 25 24 24 24 21 20 22 23 22 22 23 24
26 25 24 23 22 22 21 21 22 23 24 26 27 27 27 28 28 27 27 27 26 25 24 24 24 23 22 22 21 20 20 19 18 16 15 15 16 16 16 17 18 19 19 19 19 19 19 19 19 19 19 19 20 21 23 24 27 28 28 29 30 31 31 31 32 32 32 32 31 30 30 29 28 28 28 27 26 24 23 26 26 25 25 26 26
28 26 25 24 22 21 21 21 21 22 22 23 24 25 26 26 27 27 27 27 26 25 25 24 24 24 23 22 21 21 20 19 17 16 16 16 17 18 17 17 17 18 18 17 17 18 18 18 19 19 19 20 20 21 22 24 26 27 27 29 31 32 32 33 34 35 35 35 35 34 34 34 31 30 30 29 28 28 28 28 28 28 29 30 29
30 28 27 25 23 23 23 22 22 22 22 22 23 23 24 25 26 26 27 26 26 26 25 25 25 24 23 22 21 21 20 18 16 16 16 16 16 16 16 15 15 16 16 16 15 15 16 17 17 18 19 20 20 21 22 23 25 26 26 28 30 31 32 34 35 36 37 38 37 37 38 37 35 33 33 32 32 32 31 30 31 31 32 33 32
31 30 28 27 26 26 25 24 24 24 23 23 22 22 23 24 25 26 26 26 26 26 25 25 24 23 23 22 21 21 19 17 17 16 15 14 14 14 14 13 12 13 13 13 13 13 14 15 16 17 18 18 19 20 22 23 24 26 27 28 30 31 32 33 35 36 37 38 39 39 40 39 37 36 35 34 34 34 34 34 34 35 35 35 35
30 31 31 30 30 29 28 27 26 26 25 24 23 23 23 24 24 25 25 25 25 26 25 24 23 23 23 22 22 21 19 17 16 16 14 13 13 13 13 13 13 13 13 14 14 15 15 16 17 17 17 18 19 20 21 22 23 24 26 28 31 32 33 34 35 35 36 37 39 40 39 38 38 37 35 34 35 36 37 37 37 37 38 38 37
28 29 31 32 32 31 31 30 29 28 27 26 25 24 24 24 24 24 24 24 25 25 24 24 23 23 24 23 22 21 19 17 16 16 15 13 13 14 15 16 16 16 17 17 17 17 17 18 19 19 19 20 21 21 22 23 23 25 26 29 30 32 33 34 35 35 36 37 39 40 38 37 37 36 33 34 36 37 37 38 38 38 40 40 39
25 27 28 30 31 32 32 32 32 31 30 29 28 27 26 25 25 25 25 25 25 24 23 23 24 24 24 24 23 21 19 18 17 16 15 15 15 16 18 20 20 20 20 20 20 19 19 20 21 21 21 22 23 24 25 26 27 28 29 31 32 32 33 34 35 35 35 36 38 39 38 37 37 35 33 34 37 37 37 38 39 40 42 42 42
24 24 25 27 29 30 32 33 33 33 33 32 31 30 28 27 26 26 26 26 26 25 24 24 24 24 24 25 24 22 20 19 19 18 17 17 18 20 21 22 23 23 22 22 22 22 22 23 24 24 24 25 25 27 28 29 31 32 33 34 34 35 36 35 36 37 37 38 38 38 37 36 37 36 35 35 37 37 37 40 41 43 44 44 44
23 23 23 23 24 25 27 29 31 33 33 34 34 33 32 30 28 28 27 27 27 26 26 25 24 24 25 25 25 24 22 21 21 20 20 20 21 22 23 24 24 24 24 23 24 25 25 26 26 27 27 27 28 29 31 32 33 34 36 36 37 38 37 36 38 40 40 41 41 39 38 38 38 39 38 38 38 37 38 42 44 44 44 45 45
24 23 21 20 19 19 20 23 26 29 32 34 35 35 35 34 32 31 30 29 28 28 27 27 26 26 26 26 26 26 24 23 23 23 23 23 24 24 25 26 26 25 25 25 26 27 27 28 28 29 29 29 31 32 34 36 37 37 38 39 40 39 36 37 41 42 41 42 43 43 43 42 41 42 41 41 41 39 41 44 43 43 45 47 46
25 24 21 19 17 16 15 16 19 23 27 30 32 34 35 36 36 35 33 32 30 30 29 29 29 28 28 27 27 27 27 26 26 26 26 25 26 26 27 27 27 27 27 28 28 29 30 30 31 32 32 32 34 35 36 38 39 40 40 41 42 40 37 39 43 43 43 45 45 45 45 44 44 45 45 45 45 45 46 47 45 46 47 47 46
23 22 20 19 17 16 15 15 14 16 20 24 27 29 31 34 36 37 37 35 34 33 32 32 31 31 30 29 29 29 29 29 29 28 28 28 28 28 29 29 29 29 29 30 30 31 32 33 34 35 35 36 36 37 38 39 40 41 42 43 44 43 41 43 45 46 47 48 46 46 47 46 46 48 47 47 48 49 51 52 52 51 50 49 48
21 20 20 19 19 18 18 17 16 15 15 18 22 26 28 30 32 35 37 37 37 37 35 34 33 32 32 31 31 31 31 31 31 31 30 30 30 31 31 31 31 31 32 31 32 33 34 35 36 37 38 39 38 38 39 39 40 41 42 44 45 45 45 47 48 48 50 50 49 49 49 48 48 49 49 50 51 52 54 56 57 55 52 50 49
22 22 22 21 21 21 20 19 18 18 17 17 18 21 26 28 30 32 34 36 37 38 38 37 35 34 33 33 33 33 33 33 33 33 32 32 32 33 33 33 34 34 34 34 34 36 37 38 39 39 40 40 40 40 39 39 39 40 42 43 44 44 46 48 49 49 51 52 51 50 48 47 48 50 50 50 51 54 56 58 58 56 54 52 51
24 24 24 24 24 23 22 21 20 20 21 21 20 19 21 25 28 30 32 33 35 36 37 38 37 36 35 35 34 34 35 35 35 34 34 34 35 35 35 36 36 36 36 36 38 39 40 40 40 40 40 40 40 40 40 40 40 41 41 41 41 42 45 47 49 50 52 53 53 50 46 45 47 50 50 49 49 52 55 58 57 56 56 55 52
27 26 26 26 26 25 24 23 23 23 23 24 24 23 21 22 26 30 31 32 32 33 35 36 37 37 37 36 36 37 37 37 36 35 35 36 36 36 37 38 38 39 38 39 40 41 40 40 40 40 40 40 40 40 40 40 40 41 40 40 41 43 45 48 51 53 53 56 57 54 49 47 50 53 53 50 50 52 55 57 58 56 55 54 51
29 28 28 28 27 27 26 26 27 28 28 27 27 26 24 22 24 29 32 32 32 32 33 34 34 36 36 37 38 39 39 38 38 37 37 37 38 38 39 39 40 40 40 40 40 40 40 40 39 39 39 39 39 39 39 38 38 40 41 42 43 45 47 50 53 55 56 58 60 58 54 52 53 54 54 51 51 53 56 59 60 57 54 53 52
30 30 30 30 30 30 30 30 30 31 31 29 28 27 27 25 24 27 31 34 34 34 33 33 34 34 35 37 38 39 39 38 38 38 38 38 39 39 39 39 39 39 39 38 38 38 38 38 37 37 37 37 37 37 37 38 39 41 43 45 45 47 48 50 54 57 58 60 61 61 59 56 54 53 53 52 52 55 56 58 59 58 56 55 56
33 32 31 31 31 32 32 32 32 32 32 30 27 27 28 27 25 25 28 33 36 36 35 35 35 35 36 37 38 38 37 38 38 37 37 38 38 38 37 37 37 37 37 36 36 36 36 35 34 34 34 35 36 37 38 40 42 44 46 48 49 49 50 52 55 58 60 61 62 64 64 63 60 57 55 54 54 55 55 56 58 58 57 57 58
34 33 32 32 32 33 33 33 33 33 32 30 27 27 27 27 27 26 26 29 34 37 37 37 36 36 36 37 37 37 37 37 37 36 36 36 36 36 35 35 35 35 35 35 34 34 32 31 31 32 33 35 36 38 40 42 44 46 48 49 50 50 51 52 55 57 59 61 62 64 65 66 66 63 59 57 56 55 55 57 59 58 57 57 58
34 34 34 34 34 34 34 34 34 33 32 30 28 27 27 27 27 27 26 27 30 34 37 37 37 36 35 35 35 35 35 35 35 34 34 34 33 33 33 33 33 32 32 31 31 30 29 29 30 32 34 36 37 39 41 43 46 48 49 49 50 50 51 52 54 56 59 62 63 65 67 68 69 68 65 63 60 57 56 59 61 60 58 58 59
34 34 33 33 33 33 33 32 32 31 30 30 28 28 27 27 27 27 27 27 28 30 33 34 35 34 33 32 32 32 31 31 32 31 31 31 31 31 31 30 29 28 27 27 27 27 28 30 31 33 35 37 39 41 43 45 47 49 50 50 50 51 52 53 55 57 60 62 64 66 67 68 70 70 70 69 65 61 59 60 62 63 61 60 61
31 31 30 30 30 30 29 29 30 30 31 30 29 28 28 27 26 26 26 26 26 27 28 29 29 29 29 28 28 28 28 28 29 29 28 28 29 28 26 25 25 25 25 26 26 27 29 31 33 35 37 39 41 43 44 45 47 49 50 51 51 51 53 54 56 58 60 62 64 66 67 68 69 69 70 71 70 68 65 64 64 64 63 62 61
28 28 28 28 27 26 26 27 28 29 29 29 28 27 26 25 24 24 23 23 23 23 23 24 23 24 24 25 25 25 25 25 25 25 25 25 24 23 23 23 24 25 25 26 27 29 30 32 34 36 38 40 42 43 44 46 47 49 51 52 53 53 54 55 56 58 60 62 64 66 67 68 70 70 71 71 72 72 70 68 67 65 62 60 60
25 26 26 26 26 25 25 25 26 27 26 26 26 25 24 23 21 21 21 21 21 21 20 20 19 20 20 20 20 20 21 22 22 22 22 22 22 23 23 23 24 25 26 27 28 30 31 33 35 36 38 40 42 43 44 46 47 49 51 52 53 54 53 53 55 56 58 59 62 63 64 66 67 69 70 71 71 71 70 68 67 64 62 61 60
25 24 24 25 26 26 26 26 25 26 26 26 26 25 24 22 21 19 19 19 19 20 20 18 18 18 19 18 18 19 21 22 22 22 23 23 23 23 23 24 24 25 26 28 29 30 32 33 35 37 39 40 42 43 45 46 47 48 50 50 51 52 51 51 53 53 54 56 57 57 58 59 58 60 63 64 64 66 67 66 63 61 60 59 58
24 24 23 24 25 26 26 26 26 25 25 25 25 25 23 21 19 19 18 17 17 18 18 19 20 21 22 22 22 22 23 23 22 23 23 23 23 24 24 25 26 26 27 29 30 31 32 34 35 37 39 40 42 44 45 46 47 48 49 49 49 49 50 51 51 51 52 54 55 53 53 53 54 57 58 56 55 55 56 56 53 51 51 51 52
23 23 23 23 24 25 25 25 25 24 23 24 24 23 21 20 19 21 22 21 19 18 19 21 23 24 23 23 23 23 23 23 23 23 23 23 24 25 25 26 26 27 28 30 31 32 33 34 36 38 39 41 42 43 45 46 47 47 47 46 47 48 49 51 51 51 50 52 53 53 53 54 55 57 56 53 50 46 43 42 39 38 41 46 51
22 22 22 22 23 23 23 23 22 22 22 22 23 23 22 21 21 22 22 22 22 21 21 22 23 24 24 23 23 24 24 24 24 24 24 24 25 26 26 27 27 28 30 31 32 33 34 35 37 39 40 41 42 42 44 45 45 45 44 44 46 47 48 49 51 51 49 48 48 48 49 50 51 51 50 47 45 41 37 36 32 30 34 39 42
23 24 24 24 24 24 24 23 23 23 22 23 23 23 23 24 24 23 23 23 23 23 23 23 24 24 25 25 25 25 25 25 25 24 25 25 26 26 27 27 28 29 30 31 32 34 35 36 37 39 40 40 40 40 41 42 43 43 43 43 44 45 46 48 49 47 44 43 42 43 44 44 44 46 45 42 39 35 31 31 30 29 31 33 36
26 26 27 27 28 28 28 27 26 26 25 25 25 25 25 25 25 25 25 26 26 26 26 26 26 26 26 26 26 25 25 24 24 24 25 25 26 27 27 27 28 29 30 31 32 34 34 36 37 38 39 38 37 37 39 40 41 42 42 42 43 44 45 46 46 43 40 40 41 42 42 41 42 44 44 39 34 31 29 27 27 28 29 30 32
29 29 29 30 31 31 31 30 29 28 28 27 27 27 26 26 26 27 27 28 28 28 28 27 27 26 25 24 24 23 23 23 23 24 25 26 26 27 28 29 30 31 31 31 32 33 35 36 36 37 36 35 35 35 36 38 39 40 40 40 41 42 42 42 42 40 38 38 40 41 42 43 44 47 48 42 31 26 26 26 24 25 28 30 31
32 32 32 33 33 32 32 31 31 30 29 29 28 27 27 27 27 28 28 28 28 28 27 25 24 23 22 22 22 22 22 23 24 25 27 27 28 29 30 30 31 31 31 32 32 33 34 35 34 33 33 32 33 33 34 36 37 38 37 38 38 39 38 37 37 37 36 36 37 38 41 44 47 49 52 49 40 30 24 21 21 20 22 25 29
33 33 33 33 33 33 32 32 32 30 29 29 28 27 27 27 27 27 27 27 26 26 25 24 23 23 22 23 23 24 25 26 27 28 29 29 30 31 31 32 32 32 32 33 33 33 33 33 32 31 30 30 31 31 32 33 34 34 34 35 34 33 33 32 31 31 31 32 33 34 36 39 41 43 47 48 47 44 35 22 17 19 19 19 25
33 33 33 33 33 33 32 32 31 30 29 29 28 26 26 26 26 25 25 25 24 25 24 24 25 25 25 26 26 27 27 28 29 29 30 31 31 32 32 32 32 32 33 33 32 31 31 30 29 29 28 29 29 29 29 31 31 31 31 31 29 27 27 26 26 27 28 29 29 29 30 31 32 33 36 38 40 43 42 32 21 14 8 12 21
30 32 32 31 31 31 30 29 29 28 28 27 27 26 25 24 24 24 24 24 24 25 25 26 27 27 27 27 27 27 28 29 29 30 31 31 31 32 31 31 32 32 32 32 31 29 28 28 27 27 27 27 27 28 28 29 29 28 28 26 24 22 22 22 23 24 26 27 28 27 26 25 24 24 26 30 32 34 34 29 21 11 9 17 23
25 28 31 31 30 29 28 28 27 27 27 26 25 24 24 23 23 23 24 24 25 25 26 26 27 27 27 27 28 28 29 30 30 31 31 31 31 31 31 32 32 31 31 30 28 27 26 26 25 25 25 25 26 26 27 27 27 26 25 22 20 18 18 20 21 23 24 25 27 28 27 25 22 19 19 22 24 23 21 18 14 11 12 16 19
24 26 29 30 30 28 27 27 26 25 25 24 23 23 23 23 23 24 24 24 24 24 25 25 26 27 27 28 29 30 30 30 30 30 30 30 31 31 31 31 31 30 29 28 27 25 25 24 23 23 23 24 24 25 25 25 25 24 22 19 17 16 16 17 18 19 20 21 24 26 27 27 26 22 20 20 20 17 12 8 4 4 6 10 15
26 26 27 29 29 28 27 26 25 24 23 22 22 21 22 22 22 23 23 23 24 25 25 26 27 28 29 30 30 30 30 29 30 30 30 30 30 31 31 30 29 28 26 25 24 23 22 22 22 22 23 23 24 24 24 25 24 23 20 17 15 14 14 14 15 16 16 17 18 20 21 23 25 25 24 24 24 21 15 8 2 4 7 10 13
27 26 27 28 28 27 26 25 24 23 23 22 22 21 22 22 22 23 24 25 25 26 27 28 29 29 29 29 29 29 29 29 30 30 30 29 29 29 29 28 26 25 24 23 22 22 21 20 20 20 20 21 22 23 24 24 24 22 19 16 14 13 14 14 14 14 14 15 14 14 15 16 18 20 20 21 22 22 20 15 9 4 2 4 7
27 27 27 27 26 26 25 25 24 23 23 22 22 22 23 23 24 25 25 26 27 27 28 28 28 28 28 28 28 28 28 29 29 29 29 28 27 26 26 26 24 24 23 22 21 20 20 19 18 17 17 18 20 22 24 24 24 23 21 19 17 16 15 15 15 15 15 15 13 12 11 12 13 13 14 15 16 16 16 16 14 12 11 9 7
21 21 22 22 22 21 21 21 21 21 21 22 22 23 23 24 24 25 25 26 26 26 26 26 26 26 27 27 27 27 28 28 28 28 27 26 25 24 24 24 24 23 22 20 19 19 19 18 18 17 17 18 20 21 22 23 24 23 22 21 20 19 17 16 16 17 17 17 15 13 12 11 10 10 10 11 12 12 12 12 12 11 11 10 10
15 16 17 17 18 19 19 19 19 20 20 21 22 22 22 23 23 24 24 24 24 24 24 24 25 25 25 26 26 26 26 26 26 26 25 24 23 23 22 22 21 20 19 18 17 18 18 18 19 18 18 18 19 19 20 21 21 21 20 20 20 19 19 18 18 18 18 18 17 16 14 13 12 11 11 11 11 10 10 10 10 10 10 10 10
Wind_Direction
203 203 205 206 206 207 209 211 212 213 214 216 219 223 223 222 221 222 222 218 215 214 213 213 210 204 201 200 196 191 188 188 191 190 184 181 188 198 208 216 218 221 225 230 235 239 240 243 242 246 251 249 247 251 253 257 261 266 279 293 309 321 327 336 345 341 339 344 354 355 352 354 352 346 344 344 345 347 348 345 341 337 332 325 320
204 204 206 208 208 208 209 210 212 214 215 217 218 220 222 222 221 222 223 222 219 217 215 214 213 211 208 206 205 205 202 199 200 197 187 182 183 187 199 210 216 222 226 230 234 238 241 243 243 246 250 249 247 250 252 255 257 256 261 270 275 284 290 295 295 295 304 307 310 315 317 320 324 324 324 324 324 328 332 333 332 330 326 321 317
203 205 207 209 209 210 210 210 211 212 215 217 218 220 222 222 221 222 222 224 223 221 217 216 215 215 214 211 210 211 212 214 217 212 205 207 210 213 222 226 227 228 229 230 233 237 239 241 242 245 248 249 249 250 253 254 255 254 257 261 265 270 274 275 275 275 278 284 290 294 292 292 296 300 302 305 307 310 314 316 318 320 319 318 316
201 205 207 209 210 211 212 212 212 213 214 216 217 218 221 222 223 223 222 223 224 223 222 220 219 219 218 217 215 214 215 218 224 226 228 235 242 247 252 252 253 251 245 240 239 238 239 239 241 244 248 250 251 253 254 255 256 257 257 258 259 262 266 267 269 271 269 268 277 285 285 285 286 288 290 293 295 298 301 302 304 307 308 309 311
202 204 206 209 211 212 214 214 214 215 215 216 216 217 219 222 224 224 224 224 223 224 225 225 224 223 221 221 219 218 219 222 227 231 237 245 252 258 263 264 265 263 259 255 251 247 243 239 238 241 245 248 250 253 257 258 259 259 257 258 259 260 261 262 264 267 268 266 267 273 279 282 283 282 283 287 288 289 292 293 295 298 299 299 301
205 205 206 208 211 213 215 216 217 218 218 218 217 217 219 221 223 225 225 226 225 224 225 227 227 227 225 225 224 221 222 225 229 233 239 247 253 259 265 269 271 270 267 263 258 254 249 243 238 239 243 246 248 251 256 259 261 261 261 261 261 261 261 263 265 267 268 268 267 267 272 278 280 279 280 282 283 284 287 289 289 289 291 292 292
210 208 207 208 210 212 215 217 219 220 221 221 220 219 220 221 223 225 226 227 227 225 226 227 228 229 229 230 230 228 228 230 232 236 241 247 254 260 267 271 272 272 270 267 263 259 254 248 244 242 243 245 247 249 252 255 259 262 263 264 264 263 263 265 267 268 269 270 269 267 268 271 274 276 278 278 280 284 288 287 284 284 287 289 288
215 213 211 210 209 211 214 217 220 222 224 224 223 223 223 224 225 225 226 228 229 227 227 228 229 230 231 233 234 234 236 237 238 241 245 250 257 264 270 272 271 269 268 266 263 261 258 255 250 246 246 246 247 248 249 252 255 257 261 263 265 266 267 268 268 268 269 270 271 270 270 270 271 274 276 277 279 286 289 285 283 285 287 286 286
219 218 217 215 212 211 213 216 219 222 224 225 225 225 225 226 226 226 226 228 229 229 229 229 229 230 231 233 235 236 239 241 243 246 251 259 266 271 272 271 268 267 264 262 260 259 259 258 256 254 252 250 248 248 248 249 252 254 257 259 262 264 266 268 269 270 271 272 272 272 272 271 272 273 275 277 280 284 282 280 282 286 285 282 283
221 221 221 219 216 214 214 216 218 221 224 226 226 227 227 228 227 227 227 228 228 229 230 229 230 230 231 232 234 237 240 243 247 252 259 265 270 270 268 264 262 261 260 258 257 257 258 259 260 260 259 257 255 253 252 252 253 255 256 258 260 262 263 265 267 269 271 272 273 273 273 273 273 273 275 277 279 278 277 278 281 282 279 279 281
221 224 224 222 219 218 217 217 218 220 223 225 226 227 228 229 230 230 229 228 227 227 228 230 231 231 233 234 235 237 241 246 252 257 261 263 264 263 260 256 254 254 256 258 259 261 262 263 263 263 262 262 262 262 262 261 261 261 261 261 261 263 263 264 265 266 268 270 272 272 273 274 275 274 274 275 274 275 276 277 277 276 275 277 280
220 223 225 224 222 221 219 219 219 220 222 224 225 226 228 230 231 232 231 229 228 227 228 230 231 233 235 236 237 239 242 247 252 254 252 251 252 255 256 256 254 254 258 263 267 268 269 268 268 267 267 267 268 268 268 268 268 269 268 267 267 266 266 266 267 267 268 270 271 271 272 274 275 274 274 275 274 274 273 273 273 274 274 276 278
219 221 223 225 225 223 222 222 222 222 223 224 225 225 227 229 231 232 232 231 230 229 229 229 231 234 236 237 239 241 242 242 241 240 237 237 242 250 258 261 260 260 261 264 267 270 271 273 273 274 276 277 275 274 273 273 273 272 272 271 270 270 270 270 270 270 271 271 272 273 274 276 276 276 278 278 275 272 271 271 272 274 274 275 278
219 220 221 224 225 225 225 225 224 224 224 225 225 225 226 228 231 233 233 232 232 232 230 230 230 233 237 238 239 239 236 231 228 227 228 232 241 251 259 263 263 262 263 265 268 270 272 274 275 277 279 280 280 280 281 280 278 276 274 272 271 271 271 271 270 271 272 273 273 275 277 277 277 278 279 277 275 273 272 271 271 272 273 273 274
221 220 220 222 223 224 225 226 226 226 226 226 226 225 226 227 229 232 233 234 234 234 234 233 233 234 237 239 239 234 228 224 223 225 229 236 245 253 257 260 262 263 265 268 271 272 273 274 275 276 277 278 279 281 282 282 281 280 278 277 276 276 275 274 273 273 273 273 273 274 275 276 277 277 276 275 275 274 274 273 271 269 269 269 270
224 220 218 218 220 221 223 225 226 227 227 228 229 228 227 227 227 229 231 234 235 235 235 235 234 235 236 237 237 232 227 226 228 230 235 241 248 253 256 258 261 263 266 269 272 273 275 275 277 279 280 281 282 282 283 282 282 283 282 282 281 279 279 279 278 276 276 275 274 273 274 275 275 274 273 272 271 273 274 273 271 269 268 269 270
225 218 213 211 214 215 218 221 224 226 227 229 230 230 229 228 228 229 230 232 233 234 235 235 235 235 235 235 235 234 232 233 236 239 243 248 252 255 258 261 264 266 269 272 275 277 278 280 283 284 285 287 287 287 286 285 286 288 288 287 285 283 282 282 280 278 278 278 278 278 276 274 273 272 271 270 270 271 271 269 269 271 271 271 271
223 218 212 209 209 210 212 213 216 220 225 228 230 230 231 230 229 229 230 232 233 234 235 235 235 235 235 235 237 238 239 240 244 247 250 254 257 260 263 266 267 269 271 274 277 280 282 284 286 287 290 293 293 292 291 290 291 293 293 292 292 290 289 286 283 282 281 279 278 277 276 274 274 273 272 271 271 270 269 267 269 271 270 269 270
224 220 219 219 219 218 218 214 211 213 218 223 227 229 230 231 231 231 231 232 234 234 235 236 236 236 238 239 240 242 244 246 249 253 257 261 264 266 269 270 271 273 277 279 282 284 286 288 290 292 294 296 296 296 295 294 296 298 296 295 296 297 295 291 287 285 283 280 278 277 276 276 275 274 274 274 274 273 271 270 270 270 270 270 270
227 225 226 227 228 230 232 230 224 218 214 216 221 226 229 230 231 231 231 232 233 234 235 236 238 238 240 242 244 245 248 251 254 258 262 265 268 270 272 273 275 279 283 286 289 291 292 294 295 296 297 296 296 296 296 297 299 300 299 299 300 300 297 292 288 286 284 282 281 280 279 277 277 276 276 277 278 278 277 276 274 272 272 272 273
231 230 231 232 233 236 240 241 242 240 232 221 217 220 225 228 229 230 231 231 232 233 235 237 239 240 242 244 246 247 250 253 256 259 262 265 267 270 272 274 277 281 284 287 289 291 294 296 297 297 297 296 296 296 297 299 299 298 299 300 300 299 296 292 290 288 287 286 286 285 284 284 285 285 286 286 285 283 281 279 279 279 279 278 277
237 236 236 237 239 241 245 247 249 251 252 246 232 222 221 225 228 229 229 230 232 233 234 236 238 241 242 244 246 249 251 254 257 259 262 264 266 269 271 274 278 281 284 286 289 291 292 293 294 294 294 295 296 297 298 298 297 297 298 298 298 297 295 292 290 288 286 286 285 284 285 288 289 289 290 290 288 285 284 285 286 288 288 287 286
237 239 240 240 241 242 246 250 254 255 257 259 254 241 228 225 226 228 228 229 230 232 234 235 238 240 242 244 246 248 251 254 256 259 261 264 266 269 272 275 279 281 284 287 288 289 290 290 291 292 294 295 297 297 297 297 297 297 297 296 295 295 293 292 290 288 287 286 285 284 287 289 289 288 288 287 286 286 286 288 289 289 288 287 285
236 237 239 240 242 244 247 251 256 260 261 261 261 258 247 233 229 229 229 229 229 231 232 234 237 239 242 244 245 248 250 253 255 258 260 263 266 270 273 276 279 281 283 285 286 287 288 290 292 294 296 296 296 295 295 295 296 296 296 296 296 295 294 294 293 292 291 289 289 290 291 291 290 289 289 289 287 285 284 285 286 287 287 285 282
239 238 239 241 244 246 248 251 255 259 262 262 262 261 258 248 237 232 231 231 230 230 231 232 235 238 240 243 245 247 250 252 254 257 260 263 266 269 273 275 277 279 281 283 286 288 290 292 293 294 294 293 292 292 292 293 294 294 295 295 295 295 294 294 294 292 291 289 290 291 291 289 288 288 288 287 285 282 282 282 283 284 285 284 281
241 242 243 245 247 248 250 252 253 254 257 260 261 260 259 256 247 238 234 234 233 231 231 231 233 236 238 241 244 247 249 252 254 257 261 264 266 269 271 274 276 279 282 285 286 288 289 290 290 290 290 289 289 290 291 293 294 294 295 295 295 294 293 292 292 291 290 291 292 293 292 290 288 287 286 284 282 280 280 281 281 281 281 281 280
239 241 243 246 247 249 250 250 250 251 252 256 258 258 257 257 254 246 240 238 237 236 234 232 233 235 237 240 243 246 249 252 255 258 261 264 267 269 273 276 278 281 282 283 285 286 286 286 286 287 288 288 290 292 294 296 297 297 297 296 295 294 293 292 291 291 291 292 293 294 294 293 291 289 288 286 284 282 281 280 279 278 278 278 278
239 240 242 244 246 248 249 250 250 250 251 254 257 257 258 259 259 255 248 243 241 241 240 238 237 237 239 241 243 246 249 251 254 257 260 263 267 270 273 275 276 277 278 280 282 283 283 284 286 287 289 291 293 296 297 298 298 297 296 296 295 294 294 292 292 292 292 292 293 293 293 293 292 292 292 290 288 286 284 281 278 276 275 274 273
237 239 242 244 246 248 250 251 250 249 250 253 255 257 259 260 260 258 253 248 245 243 243 243 243 243 243 245 247 249 251 253 255 258 260 263 266 268 269 270 272 273 275 277 278 280 282 286 289 291 293 294 296 296 297 297 297 296 296 296 296 295 294 293 292 292 292 293 294 294 294 295 295 295 294 292 289 287 284 281 279 277 273 271 269
238 240 243 245 246 247 248 249 249 247 247 250 253 256 258 258 257 256 253 250 247 244 243 244 244 245 247 248 249 252 254 256 258 260 261 262 263 264 266 268 270 272 272 274 277 282 287 290 292 294 295 296 296 297 296 296 296 295 295 295 295 295 295 295 295 295 295 295 296 296 297 297 297 297 296 294 292 289 284 281 279 278 274 271 268
240 241 242 244 245 245 244 244 244 243 243 246 249 252 254 255 254 252 250 249 247 245 244 244 244 245 247 249 250 252 254 255 258 260 260 261 262 263 266 268 269 271 274 278 283 288 291 293 295 297 297 297 296 296 296 296 296 296 297 298 298 298 298 298 298 298 297 297 298 298 298 298 297 296 295 293 292 289 286 282 280 279 278 275 272
241 241 241 242 243 242 241 240 239 239 240 241 243 246 248 249 249 248 246 244 242 241 242 243 242 242 245 248 249 250 250 253 257 258 258 259 261 264 267 269 272 276 280 284 288 291 293 294 295 295 296 296 297 298 298 298 299 300 301 301 301 301 301 301 300 299 300 301 301 301 301 301 300 298 296 294 292 291 288 286 282 280 279 279 276
241 240 239 240 240 239 238 238 238 238 239 240 240 241 242 243 242 241 239 238 236 234 234 234 235 236 239 245 249 247 244 245 249 253 255 257 260 264 267 271 275 279 282 286 288 290 291 292 294 296 298 299 300 300 300 300 301 301 301 301 301 302 302 302 302 302 303 303 303 304 306 305 303 301 298 295 292 289 286 284 281 279 277 276 274
241 241 240 240 240 239 238 237 237 239 241 241 240 238 238 239 238 237 237 236 232 229 227 226 227 228 227 229 234 239 239 240 242 247 251 256 260 265 269 272 276 279 282 285 287 288 291 294 297 300 301 301 300 300 300 300 300 299 299 300 301 303 304 305 304 305 305 305 306 309 312 311 309 305 300 295 291 287 282 278 275 273 272 271 270
244 243 243 243 242 241 239 237 237 239 241 242 240 237 235 234 232 232 235 237 233 229 225 222 224 227 226 224 226 233 239 243 245 249 253 257 262 266 269 272 276 279 282 284 286 290 294 297 299 300 300 300 300 300 299 299 299 300 301 302 304 306 307 307 307 307 308 309 309 311 312 314 318 319 313 306 300 293 285 279 275 272 271 271 271
246 246 246 245 244 243 243 241 239 238 238 239 237 232 228 228 226 222 224 227 229 227 223 221 223 229 232 234 236 239 243 247 250 253 256 260 264 267 270 274 277 280 283 285 289 292 296 297 298 299 300 300 300 300 300 300 300 302 304 306 308 309 310 309 309 311 312 312 311 311 312 315 321 325 321 313 306 299 290 282 277 271 268 268 269
242 241 241 241 241 241 241 238 235 231 228 229 230 226 221 223 225 221 219 221 224 226 227 227 230 234 237 241 244 247 251 253 256 258 261 264 267 269 272 275 278 281 284 288 291 294 296 298 299 300 301 300 300 300 300 301 302 304 307 309 311 311 311 311 312 313 314 315 315 318 322 324 326 327 323 315 308 303 294 284 277 268 262 261 262
239 237 234 231 232 234 233 229 226 223 219 220 224 222 218 219 222 222 222 225 228 231 233 235 237 240 243 246 249 252 255 257 260 262 264 266 269 271 274 277 280 283 286 289 292 294 296 298 300 300 300 299 299 300 300 302 304 306 309 311 312 312 311 312 313 314 315 317 321 328 334 338 338 336 331 322 314 310 301 285 273 265 259 257 258
236 235 234 231 229 229 230 228 226 225 224 224 225 225 224 224 225 226 228 230 233 235 237 239 243 247 249 251 254 256 259 261 263 264 266 268 270 273 275 278 280 283 286 289 292 295 297 298 299 298 297 298 299 300 302 304 306 308 310 312 312 313 313 314 315 317 319 322 328 334 340 345 346 344 342 335 324 317 311 296 277 264 259 257 256
236 233 233 233 231 231 231 232 230 228 228 230 231 232 232 232 232 232 234 236 239 241 244 247 252 255 257 257 259 260 262 264 264 264 265 267 269 271 274 277 280 284 288 292 295 296 296 295 294 294 295 297 300 302 303 305 307 309 311 313 314 315 316 318 320 323 327 331 335 338 342 347 348 348 348 347 340 325 312 303 290 275 263 257 255
237 233 231 230 231 231 231 232 233 234 233 234 236 236 237 237 237 237 238 240 242 245 248 250 253 255 255 256 257 257 258 258 258 260 262 265 268 271 275 280 285 289 293 295 295 293 292 291 291 292 295 298 301 302 304 306 307 309 311 313 315 317 320 323 326 330 334 337 340 341 344 348 351 352 353 355 356 350 329 304 291 284 271 260 258
233 230 228 227 228 229 229 228 231 233 234 235 237 237 237 238 238 238 239 241 242 244 246 248 249 249 249 250 250 251 252 254 256 260 264 268 273 278 283 288 291 293 294 293 290 288 288 288 290 293 296 298 299 301 303 304 306 307 310 314 317 321 325 329 333 337 340 342 343 344 346 349 353 357 0 3 6 7 2 342 313 303 292 270 255
229 225 224 223 224 225 226 226 227 229 230 232 233 233 234 235 236 238 240 242 244 246 247 248 249 249 249 250 251 252 254 257 262 267 273 277 282 286 288 290 290 290 288 286 284 284 285 287 289 292 294 295 296 297 299 301 303 306 310 315 320 326 332 335 337 342 347 350 349 348 348 349 351 356 0 4 7 10 11 10 1 339 294 223 211
230 223 219 219 220 221 222 223 223 224 226 227 227 228 230 233 235 238 241 242 244 245 247 248 250 252 253 255 258 260 263 268 272 276 281 283 285 286 286 286 285 284 282 282 282 283 284 285 287 289 290 291 292 293 295 298 300 304 308 315 322 331 337 340 344 350 355 358 359 358 356 354 352 351 352 354 357 2 9 17 27 46 119 147 152
235 229 222 218 217 218 219 220 220 222 223 225 226 227 229 232 234 236 238 240 242 245 248 251 254 258 261 264 268 271 274 276 279 281 282 283 283 284 284 283 283 281 280 281 281 282 282 283 284 285 286 287 289 291 293 295 298 301 305 312 322 332 340 345 352 359 3 4 5 7 7 5 1 353 347 350 356 1 8 20 41 79 118 135 141
234 234 230 223 218 217 219 220 221 222 224 226 229 231 231 231 232 233 236 240 244 248 253 257 261 265 269 272 274 276 277 278 279 280 280 281 282 283 282 282 282 281 282 283 284 284 283 282 281 281 283 284 285 287 289 292 295 297 302 310 320 332 342 349 356 4 9 12 14 16 16 16 14 10 3 2 7 12 13 13 32 101 139 154 161
226 227 229 227 222 219 220 221 222 223 225 228 230 230 231 232 234 236 241 245 249 254 258 262 266 269 272 274 275 276 277 278 278 279 280 281 281 281 281 281 281 282 282 284 284 284 283 282 281 282 283 282 281 283 286 289 292 293 296 305 317 327 336 346 354 1 6 11 17 22 24 25 26 27 26 25 27 30 31 25 327 245 233 221 210
214 216 222 226 225 224 224 225 225 226 228 229 230 232 234 237 241 245 249 253 256 260 263 265 268 270 271 272 273 274 275 277 278 279 280 280 280 280 280 280 281 281 281 282 281 279 279 279 281 284 284 281 279 281 284 287 288 289 290 296 306 315 323 331 340 348 353 357 4 17 26 28 28 31 34 35 37 39 42 44 44 37 315 250 234
201 205 211 218 222 223 224 224 225 226 228 231 234 237 241 244 248 251 255 257 260 262 264 265 267 268 268 270 272 273 274 276 276 277 278 278 278 279 279 278 278 277 277 277 276 276 277 278 279 281 282 280 278 280 283 284 286 286 286 288 294 302 309 316 325 333 338 339 343 353 5 13 18 23 28 30 31 33 38 42 46 49 49 50 53
197 199 202 206 211 215 218 221 224 228 232 236 240 243 246 249 252 254 256 258 260 261 263 264 266 267 268 270 271 272 273 273 274 274 275 275 274 274 273 273 273 272 270 270 273 275 278 279 279 279 279 276 274 276 278 280 281 281 281 284 288 291 296 304 313 320 323 323 324 328 334 342 351 1 6 8 10 12 16 19 22 24 25 27 28
202 201 202 203 207 211 216 221 225 230 234 239 242 245 248 251 253 255 257 258 260 262 263 265 267 268 270 271 272 273 273 274 274 274 274 273 272 270 267 265 265 264 264 269 275 279 282 284 284 283 281 278 276 276 278 280 281 281 282 286 289 291 294 301 307 310 311 312 313 316 320 323 326 330 333 337 342 348 351 352 352 351 349 347 344
Height
3166 3168 3171 3173 3175 3178 3180 3182 3185 3187 3189 3191 3193 3195 3198 3200 3202 3204 3205 3207 3209 3210 3212 3213 3214 3215 3216 3217 3217 3218 3219 3220 3221 3222 3224 3225 3226 3226 3227 3228 3228 3229 3230 3230 3230 3231 3231 3232 3233 3233 3233 3233 3234 3234 3234 3234 3234 3234 3234 3234 3233 3233 3232 3232 3231 3231 3230 3230 3230 3229 3229 3228 3228 3227 3227 3226 3225 3224 3223 3222 3221 3220 3219 3217 3216
3164 3166 3169 3171 3173 3176 3178 3180 3182 3184 3186 3188 3190 3193 3195 3197 3200 3201 3203 3205 3207 3209 3210 3212 3213 3214 3215 3216 3217 3217 3218 3219 3220 3221 3222 3223 3224 3225 3226 3226 3227 3228 3228 3228 3229 3229 3230 3230 3231 3231 3231 3231 3232 3232 3232 3233 3233 3233 3233 3233 3232 3232 3231 3231 3230 3230 3229 3229 3228 3228 3228 3227 3227 3226 3226 3225 3224 3223 3222 3221 3220 3218 3217 3216 3215
3163 3165 3167 3169 3171 3174 3175 3177 3179 3181 3183 3185 3188 3190 3192 3195 3197 3198 3201 3203 3204 3206 3208 3210 3211 3213 3214 3215 3216 3216 3217 3218 3219 3220 3220 3221 3222 3223 3224 3225 3225 3226 3227 3227 3227 3227 3228 3228 3229 3229 3229 3229 3230 3230 3231 3231 3231 3231 3231 3231 3231 3230 3230 3229 3228 3228 3228 3227 3227 3226 3226 3226 3225 3225 3224 3223 3222 3221 3220 3219 3218 3217 3216 3215 3214
3161 3163 3165 3167 3170 3171 3173 3174 3176 3178 3180 3182 3185 3188 3190 3192 3194 3196 3198 3200 3202 3204 3206 3208 3209 3210 3212 3213 3214 3215 3216 3217 3218 3218 3219 3220 3220 3221 3222 3223 3224 3224 3225 3225 3225 3225 3226 3226 3227 3227 3227 3227 3228 3228 3229 3229 3229 3229 3229 3229 3229 3228 3228 3227 3226 3226 3226 3226 3225 3224 3224 3223 3223 3223 3222 3221 3220 3219 3218 3217 3216 3215 3214 3213 3212
3159 3161 3163 3165 3167 3169 3170 3172 3174 3175 3178 3180 3182 3185 3187 3189 3191 3193 3195 3197 3199 3202 3203 3205 3207 3208 3210 3211 3213 3214 3215 3216 3216 3217 3217 3218 3219 3219 3220 3221 3221 3222 3223 3223 3223 3223 3224 3224 3225 3225 3225 3225 3226 3226 3226 3227 3227 3227 3227 3227 3227 3226 3225 3225 3224 3224 3223 3223 3223 3223 3221 3221 3221 3220 3220 3219 3218 3217 3216 3215 3214 3213 3212 3210 3209
3158 3160 3161 3163 3165 3167 3168 3170 3172 3174 3176 3178 3180 3183 3184 3187 3189 3191 3193 3195 3197 3199 3201 3203 3204 3206 3208 3209 3211 3212 3213 3214 3214 3215 3216 3216 3217 3217 3218 3218 3219 3219 3220 3221 3221 3221 3221 3222 3222 3222 3222 3223 3224 3224 3224 3224 3224 3224 3224 3224 3224 3223 3223 3222 3222 3221 3220 3220 3220 3220 3219 3218 3218 3217 3217 3216 3215 3214 3214 3213 3212 3211 3209 3208 3207
3156 3158 3160 3161 3163 3165 3166 3168 3170 3172 3174 3176 3178 3180 3182 3184 3186 3188 3191 3192 3194 3196 3198 3200 3202 3204 3206 3207 3208 3210 3211 3211 3212 3213 3214 3214 3215 3215 3216 3216 3216 3217 3217 3218 3218 3218 3218 3219 3220 3220 3220 3220 3221 3222 3222 3222 3221 3221 3221 3220 3220 3220 3220 3219 3219 3218 3217 3217 3217 3217 3216 3216 3214 3214 3214 3213 3212 3212 3211 3210 3209 3208 3207 3206 3205
3155 3156 3158 3159 3161 3163 3165 3167 3169 3171 3172 3174 3176 3178 3180 3182 3184 3186 3188 3190 3191 3193 3196 3198 3200 3201 3203 3204 3206 3207 3208 3208 3209 3211 3212 3212 3213 3213 3214 3214 3214 3214 3214 3215 3215 3215 3215 3216 3216 3217 3217 3218 3219 3219 3219 3219 3218 3218 3218 3217 3217 3216 3216 3216 3215 3214 3214 3213 3213 3213 3213 3212 3211 3211 3211 3209 3208 3209 3208 3206 3205 3205 3204 3203 3201
3153 3155 3156 3157 3159 3162 3164 3165 3167 3169 3170 3172 3174 3175 3178 3180 3182 3184 3185 3187 3189 3191 3193 3195 3197 3198 3200 3201 3203 3204 3204 3205 3207 3208 3209 3210 3211 3211 3211 3211 3211 3211 3211 3212 3212 3212 3212 3213 3213 3214 3215 3215 3215 3216 3216 3215 3215 3215 3215 3215 3214 3213 3213 3212 3211 3211 3210 3209 3209 3209 3209 3208 3208 3208 3207 3206 3206 3206 3205 3202 3201 3201 3200 3198 3198
3151 3153 3154 3156 3159 3161 3162 3164 3165 3167 3168 3170 3171 3173 3175 3177 3179 3181 3183 3185 3187 3189 3191 3192 3194 3195 3197 3198 3200 3201 3201 3203 3204 3206 3207 3207 3208 3208 3209 3209 3209 3208 3208 3208 3209 3209 3210 3210 3210 3211 3211 3212 3212 3212 3212 3212 3212 3212 3212 3211 3210 3210 3209 3208 3208 3207 3206 3205 3205 3205 3204 3204 3205 3205 3204 3203 3203 3202 3201 3199 3199 3198 3196 3194 3194
3149 3150 3153 3155 3158 3159 3161 3162 3163 3165 3166 3168 3169 3171 3173 3175 3176 3178 3180 3182 3184 3186 3188 3189 3191 3192 3194 3196 3197 3198 3199 3200 3202 3203 3204 3205 3205 3205 3206 3206 3206 3206 3206 3206 3206 3207 3207 3208 3208 3208 3208 3209 3209 3209 3209 3209 3208 3208 3208 3208 3207 3206 3205 3204 3203 3203 3202 3201 3201 3201 3199 3199 3201 3201 3201 3200 3200 3198 3197 3196 3195 3194 3192 3191 3190
3146 3148 3151 3153 3155 3157 3159 3160 3161 3163 3164 3166 3167 3169 3171 3172 3174 3175 3177 3180 3182 3184 3185 3187 3188 3190 3191 3193 3194 3195 3196 3198 3199 3201 3201 3202 3203 3203 3203 3204 3204 3204 3204 3204 3204 3205 3205 3205 3205 3205 3205 3206 3206 3206 3206 3205 3205 3205 3204 3204 3203 3202 3201 3200 3199 3199 3198 3197 3196 3196 3195 3195 3197 3197 3197 3197 3196 3195 3194 3192 3191 3190 3188 3187 3186
3144 3146 3149 3151 3152 3154 3156 3158 3159 3160 3162 3164 3166 3167 3168 3170 3171 3173 3175 3177 3180 3181 3183 3185 3186 3187 3188 3190 3191 3192 3194 3196 3197 3198 3199 3200 3201 3201 3201 3201 3201 3202 3202 3202 3202 3202 3202 3202 3202 3202 3203 3203 3203 3203 3202 3202 3202 3201 3200 3199 3198 3197 3196 3196 3195 3194 3194 3193 3191 3191 3191 3192 3192 3193 3194 3193 3191 3190 3189 3188 3187 3185 3184 3183 3182
3142 3144 3146 3148 3150 3152 3153 3155 3156 3158 3160 3162 3163 3165 3166 3167 3169 3171 3173 3175 3176 3178 3180 3182 3184 3185 3185 3187 3188 3190 3191 3193 3195 3196 3197 3198 3199 3199 3199 3199 3198 3199 3199 3199 3200 3200 3200 3200 3200 3200 3200 3200 3199 3199 3199 3198 3198 3197 3196 3194 3193 3192 3192 3191 3191 3190 3189 3188 3187 3186 3187 3187 3187 3188 3189 3187 3185 3184 3184 3183 3182 3180 3178 3178 3178
3140 3141 3143 3145 3147 3148 3150 3151 3153 3155 3157 3159 3160 3162 3163 3165 3167 3168 3170 3172 3173 3175 3178 3179 3181 3182 3183 3184 3186 3187 3189 3190 3192 3193 3195 3196 3197 3197 3196 3196 3196 3196 3196 3197 3197 3197 3198 3197 3197 3197 3197 3197 3196 3196 3195 3195 3193 3192 3191 3190 3189 3188 3187 3186 3186 3186 3185 3183 3182 3182 3182 3182 3182 3183 3183 3181 3179 3179 3178 3177 3176 3174 3172 3171 3171
3137 3139 3140 3142 3143 3145 3147 3148 3150 3152 3154 3155 3157 3159 3160 3162 3164 3166 3167 3169 3171 3172 3174 3176 3177 3179 3181 3182 3183 3184 3186 3188 3189 3191 3192 3193 3194 3194 3193 3193 3193 3193 3193 3194 3194 3194 3194 3194 3194 3194 3194 3194 3193 3193 3192 3191 3189 3188 3187 3186 3185 3183 3182 3182 3182 3181 3180 3178 3177 3177 3177 3177 3176 3176 3176 3175 3173 3173 3172 3170 3169 3167 3166 3165 3166
3135 3137 3138 3139 3141 3142 3144 3146 3147 3149 3151 3152 3153 3155 3158 3160 3162 3163 3164 3166 3168 3169 3171 3173 3175 3176 3178 3178 3179 3180 3183 3185 3186 3187 3189 3190 3190 3190 3190 3190 3190 3190 3190 3191 3191 3191 3191 3191 3191 3190 3190 3190 3190 3189 3188 3186 3185 3184 3182 3181 3180 3178 3178 3178 3176 3175 3175 3173 3172 3172 3172 3172 3171 3170 3169 3168 3167 3167 3166 3162 3161 3161 3161 3160 3160
3133 3134 3136 3137 3139 3140 3141 3143 3144 3146 3147 3148 3150 3152 3154 3156 3158 3160 3161 3163 3165 3166 3168 3170 3171 3173 3174 3175 3176 3177 3179 3181 3182 3183 3185 3186 3186 3186 3186 3186 3186 3186 3187 3187 3187 3187 3187 3187 3187 3186 3186 3186 3185 3184 3183 3181 3180 3179 3177 3175 3173 3172 3173 3172 3170 3169 3169 3168 3166 3166 3165 3166 3165 3164 3164 3162 3162 3161 3158 3155 3156 3155 3154 3153 3154
3132 3133 3134 3135 3136 3137 3139 3140 3142 3143 3144 3146 3147 3149 3151 3152 3154 3156 3158 3160 3162 3163 3165 3166 3168 3169 3170 3172 3173 3174 3174 3176 3177 3178 3180 3181 3182 3182 3182 3182 3182 3182 3182 3183 3183 3183 3183 3183 3182 3182 3182 3181 3180 3179 3178 3176 3174 3173 3171 3169 3167 3167 3168 3166 3163 3162 3161 3160 3159 3159 3159 3159 3159 3159 3158 3157 3156 3155 3152 3150 3150 3148 3146 3147 3149
3130 3131 3132 3133 3134 3135 3136 3137 3139 3140 3141 3143 3144 3146 3147 3149 3151 3152 3154 3156 3158 3160 3161 3162 3164 3165 3167 3168 3169 3170 3171 3172 3173 3174 3175 3176 3176 3177 3177 3176 3177 3177 3177 3177 3177 3177 3177 3177 3177 3177 3177 3176 3175 3174 3173 3171 3169 3167 3165 3163 3161 3161 3162 3159 3155 3154 3152 3151 3152 3152 3151 3152 3152 3151 3152 3152 3151 3150 3147 3144 3142 3140 3141 3143 3144
3128 3129 3130 3131 3132 3133 3134 3135 3136 3137 3139 3140 3142 3143 3144 3146 3147 3148 3150 3152 3154 3155 3157 3159 3160 3162 3163 3164 3165 3166 3167 3168 3169 3170 3171 3172 3172 3172 3172 3172 3172 3173 3173 3173 3173 3173 3173 3173 3173 3172 3171 3170 3170 3169 3168 3166 3164 3162 3160 3158 3156 3155 3154 3150 3148 3146 3144 3143 3143 3144 3144 3145 3145 3145 3146 3147 3146 3144 3140 3136 3133 3134 3136 3137 3138
3125 3127 3128 3129 3130 3131 3132 3133 3134 3135 3136 3137 3139 3140 3141 3142 3143 3145 3146 3148 3149 3151 3153 3155 3156 3158 3159 3160 3161 3162 3163 3164 3165 3166 3167 3168 3168 3168 3168 3168 3169 3169 3169 3169 3169 3169 3169 3169 3168 3167 3166 3165 3164 3163 3162 3161 3159 3158 3156 3154 3152 3150 3147 3144 3141 3140 3137 3135 3135 3136 3139 3141 3141 3140 3141 3141 3139 3136 3131 3127 3126 3128 3130 3130 3131
3123 3124 3125 3126 3127 3128 3129 3130 3131 3132 3133 3134 3136 3137 3138 3139 3140 3141 3142 3144 3145 3147 3148 3150 3152 3153 3155 3156 3157 3158 3159 3160 3161 3162 3163 3163 3164 3164 3164 3164 3165 3165 3165 3165 3165 3165 3165 3164 3164 3163 3162 3160 3159 3158 3157 3155 3154 3153 3151 3150 3148 3145 3142 3138 3135 3133 3130 3127 3125 3129 3136 3138 3136 3133 3133 3132 3131 3127 3123 3120 3119 3120 3120 3120 3120
3121 3122 3123 3124 3125 3126 3127 3128 3128 3129 3130 3131 3132 3134 3135 3136 3137 3138 3139 3140 3141 3143 3144 3146 3147 3149 3150 3152 3153 3154 3155 3156 3157 3158 3159 3159 3159 3160 3160 3160 3160 3161 3161 3162 3161 3160 3160 3159 3158 3157 3156 3155 3154 3152 3151 3150 3149 3147 3146 3145 3143 3141 3137 3133 3129 3126 3124 3120 3117 3121 3128 3131 3128 3124 3124 3124 3122 3119 3114 3111 3110 3110 3110 3110 3110
3118 3119 3120 3122 3123 3123 3124 3125 3126 3126 3127 3128 3129 3131 3132 3133 3134 3135 3135 3136 3137 3139 3140 3141 3143 3144 3146 3147 3148 3149 3150 3152 3153 3153 3154 3155 3155 3156 3156 3156 3156 3156 3157 3157 3156 3155 3155 3154 3153 3152 3151 3150 3149 3147 3147 3146 3144 3143 3141 3140 3138 3136 3133 3129 3124 3121 3118 3114 3111 3112 3116 3119 3117 3115 3114 3114 3112 3109 3105 3102 3101 3101 3101 3101 3100
3114 3116 3117 3118 3119 3120 3121 3122 3123 3124 3124 3125 3126 3127 3128 3129 3130 3131 3132 3133 3134 3135 3136 3137 3139 3140 3142 3143 3143 3144 3146 3147 3148 3149 3150 3151 3151 3152 3152 3152 3152 3151 3151 3152 3151 3150 3150 3149 3148 3147 3146 3145 3144 3143 3142 3141 3140 3139 3137 3135 3132 3130 3127 3124 3119 3115 3111 3108 3104 3102 3103 3106 3107 3106 3105 3103 3101 3099 3097 3095 3092 3091 3091 3091 3090
3111 3112 3113 3114 3115 3117 3118 3119 3120 3120 3121 3122 3124 3124 3124 3125 3126 3127 3128 3129 3130 3131 3132 3133 3134 3136 3137 3138 3139 3140 3142 3143 3144 3145 3146 3146 3146 3147 3147 3147 3147 3146 3146 3146 3146 3145 3145 3144 3143 3142 3141 3141 3140 3138 3137 3136 3135 3133 3131 3129 3126 3124 3121 3118 3114 3109 3105 3102 3098 3094 3092 3093 3094 3095 3095 3094 3091 3090 3089 3086 3082 3080 3081 3082 3080
3107 3108 3110 3111 3112 3113 3114 3114 3115 3116 3118 3119 3120 3120 3121 3121 3122 3123 3124 3125 3126 3127 3128 3129 3130 3132 3132 3133 3135 3136 3138 3139 3140 3141 3142 3142 3142 3142 3142 3142 3142 3142 3141 3141 3141 3140 3140 3140 3139 3138 3137 3136 3135 3134 3132 3131 3129 3127 3125 3123 3120 3118 3115 3112 3108 3104 3100 3095 3091 3088 3085 3082 3081 3082 3084 3083 3081 3080 3079 3076 3072 3071 3072 3072 3070
3103 3104 3105 3106 3107 3108 3109 3110 3111 3113 3114 3116 3116 3116 3117 3117 3118 3119 3119 3120 3121 3122 3124 3125 3127 3128 3129 3129 3131 3132 3133 3135 3136 3137 3137 3138 3138 3138 3138 3138 3138 3138 3137 3137 3137 3136 3136 3135 3135 3134 3133 3132 3130 3129 3127 3126 3124 3122 3119 3117 3114 3112 3109 3106 3102 3098 3094 3089 3084 3080 3077 3073 3070 3069 3070 3070 3070 3070 3069 3064 3061 3061 3062 3061 3058
3099 3100 3101 3102 3103 3104 3105 3107 3108 3109 3110 3111 3112 3112 3113 3113 3114 3115 3115 3116 3117 3118 3119 3121 3123 3124 3124 3125 3127 3128 3129 3130 3131 3132 3132 3133 3133 3133 3134 3134 3134 3134 3133 3133 3133 3132 3132 3131 3130 3129 3128 3126 3125 3124 3122 3120 3118 3116 3114 3111 3108 3105 3102 3099 3095 3091 3086 3082 3077 3073 3069 3065 3061 3058 3055 3053 3054 3057 3057 3053 3050 3049 3048 3048 3046
3095 3096 3097 3098 3099 3100 3102 3103 3104 3105 3107 3107 3108 3108 3109 3109 3110 3111 3111 3112 3113 3114 3116 3117 3118 3120 3120 3121 3122 3123 3124 3125 3126 3127 3127 3128 3128 3129 3129 3130 3130 3129 3129 3129 3129 3128 3127 3126 3125 3124 3123 3121 3120 3118 3117 3114 3111 3109 3106 3103 3101 3098 3095 3091 3088 3083 3079 3074 3069 3065 3061 3057 3053 3049 3046 3041 3039 3040 3040 3040 3038 3036 3035 3034 3034
3091 3092 3094 3094 3095 3097 3098 3099 3101 3102 3103 3103 3104 3104 3105 3106 3106 3107 3108 3109 3110 3111 3112 3113 3115 3116 3116 3117 3118 3119 3120 3121 3122 3123 3123 3123 3124 3125 3125 3125 3125 3125 3125 3125 3124 3123 3123 3122 3121 3120 3118 3116 3114 3112 3110 3107 3104 3101 3098 3095 3092 3090 3087 3084 3080 3076 3071 3067 3061 3057 3053 3049 3043 3039 3035 3031 3027 3025 3024 3023 3023 3023 3023 3022 3022
3088 3089 3090 3091 3092 3093 3094 3096 3097 3098 3099 3099 3100 3101 3101 3102 3103 3103 3104 3105 3106 3108 3109 3110 3111 3112 3113 3114 3115 3116 3117 3118 3119 3120 3120 3120 3121 3121 3121 3121 3121 3121 3121 3120 3120 3119 3118 3118 3117 3115 3113 3111 3108 3106 3103 3100 3097 3094 3091 3088 3085 3082 3080 3077 3073 3069 3065 3060 3055 3050 3046 3040 3034 3028 3022 3017 3014 3011 3008 3007 3007 3008 3009 3009 3009
3084 3086 3087 3088 3089 3090 3091 3092 3093 3094 3095 3096 3096 3097 3098 3099 3099 3101 3101 3102 3103 3105 3106 3107 3108 3109 3110 3112 3113 3114 3114 3115 3116 3116 3117 3117 3117 3117 3117 3117 3117 3117 3117 3116 3116 3115 3114 3113 3111 3109 3107 3104 3102 3100 3097 3094 3092 3089 3086 3083 3080 3076 3073 3070 3066 3062 3058 3053 3048 3043 3038 3032 3026 3019 3011 3005 3001 2997 2994 2993 2993 2993 2994 2996 2997
3081 3083 3084 3085 3086 3087 3087 3088 3089 3090 3091 3092 3093 3094 3095 3096 3097 3099 3100 3101 3101 3102 3103 3105 3106 3107 3107 3109 3110 3110 3111 3111 3112 3113 3113 3113 3113 3113 3113 3113 3113 3113 3112 3112 3111 3110 3109 3107 3105 3103 3101 3099 3097 3094 3091 3088 3085 3082 3080 3077 3074 3070 3067 3063 3059 3056 3052 3047 3041 3036 3030 3024 3017 3008 3000 2994 2989 2986 2983 2982 2983 2983 2985 2986 2988
3078 3079 3080 3081 3082 3083 3084 3085 3086 3087 3088 3089 3090 3091 3092 3094 3095 3096 3098 3099 3099 3100 3101 3102 3103 3104 3104 3105 3106 3107 3107 3108 3109 3109 3109 3110 3109 3109 3109 3109 3109 3109 3108 3107 3106 3105 3103 3102 3100 3098 3096 3094 3091 3088 3085 3082 3079 3076 3074 3071 3067 3064 3060 3056 3052 3049 3046 3041 3035 3029 3023 3016 3008 2999 2992 2985 2980 2977 2975 2975 2975 2977 2979 2981 2982
3075 3075 3076 3077 3078 3079 3080 3081 3082 3083 3085 3086 3087 3088 3089 3091 3092 3094 3095 3096 3097 3097 3098 3099 3100 3100 3101 3101 3102 3103 3104 3104 3105 3105 3105 3105 3105 3105 3105 3105 3105 3104 3103 3102 3101 3100 3098 3096 3094 3092 3090 3088 3086 3083 3080 3076 3073 3071 3068 3065 3062 3058 3055 3050 3046 3043 3039 3035 3030 3024 3017 3009 3001 2993 2986 2980 2975 2971 2969 2968 2969 2970 2973 2976 2978
3071 3071 3073 3074 3074 3075 3076 3077 3078 3080 3081 3082 3083 3085 3086 3088 3089 3091 3092 3093 3094 3094 3095 3096 3096 3097 3097 3098 3099 3100 3100 3101 3101 3101 3101 3101 3101 3100 3101 3101 3100 3099 3099 3098 3096 3094 3092 3091 3089 3087 3085 3083 3081 3078 3074 3071 3068 3066 3063 3060 3058 3054 3050 3046 3042 3039 3034 3030 3026 3020 3012 3004 2997 2989 2982 2975 2971 2968 2965 2964 2963 2964 2966 2969 2971
3068 3068 3069 3070 3070 3071 3072 3073 3075 3076 3078 3079 3080 3081 3083 3085 3086 3087 3088 3089 3090 3090 3091 3092 3092 3093 3094 3095 3096 3097 3097 3098 3098 3098 3098 3097 3097 3097 3097 3096 3096 3096 3095 3093 3091 3089 3087 3086 3084 3082 3081 3078 3076 3073 3069 3066 3064 3061 3058 3056 3053 3050 3046 3042 3038 3034 3030 3025 3020 3015 3008 3001 2995 2988 2980 2973 2968 2965 2963 2961 2961 2961 2962 2964 2966
3064 3065 3065 3066 3067 3068 3069 3070 3072 3073 3075 3076 3077 3079 3080 3082 3083 3084 3084 3085 3086 3086 3087 3088 3089 3091 3092 3093 3094 3094 3095 3095 3094 3094 3094 3093 3093 3093 3093 3093 3092 3091 3090 3088 3086 3084 3083 3082 3080 3079 3077 3074 3071 3068 3064 3061 3059 3057 3055 3052 3049 3046 3042 3037 3033 3029 3025 3020 3015 3009 3003 2997 2991 2985 2979 2972 2967 2964 2961 2958 2958 2958 2959 2961 2962
3061 3061 3062 3063 3064 3065 3066 3067 3068 3070 3072 3073 3075 3076 3078 3079 3080 3080 3081 3082 3083 3084 3086 3087 3088 3090 3090 3091 3091 3091 3091 3090 3090 3090 3089 3090 3090 3090 3089 3088 3087 3085 3084 3083 3082 3080 3079 3078 3076 3074 3072 3069 3066 3064 3061 3058 3056 3054 3052 3049 3046 3043 3039 3034 3030 3026 3021 3016 3011 3005 2999 2994 2988 2982 2975 2969 2964 2961 2958 2955 2954 2955 2956 2959 2960
3058 3058 3059 3060 3061 3062 3064 3065 3066 3067 3069 3071 3072 3074 3075 3076 3077 3077 3079 3080 3081 3083 3084 3085 3086 3086 3087 3087 3087 3087 3087 3086 3086 3086 3086 3086 3085 3084 3083 3082 3081 3080 3079 3078 3077 3076 3075 3073 3071 3069 3066 3064 3062 3060 3057 3055 3053 3051 3049 3046 3043 3040 3036 3032 3029 3024 3020 3015 3009 3004 2999 2994 2989 2984 2978 2970 2964 2960 2956 2953 2952 2952 2953 2955 2957
3055 3055 3056 3058 3059 3060 3062 3063 3064 3065 3067 3068 3069 3071 3072 3073 3074 3075 3076 3077 3078 3079 3079 3080 3081 3081 3082 3082 3083 3083 3083 3083 3082 3082 3081 3080 3079 3079 3078 3077 3076 3076 3075 3074 3073 3072 3071 3068 3066 3064 3061 3059 3058 3057 3054 3052 3051 3049 3046 3044 3041 3038 3034 3031 3028 3024 3020 3015 3011 3006 3002 2998 2994 2990 2985 2978 2972 2967 2962 2958 2955 2954 2954 2955 2957
3052 3053 3054 3056 3057 3058 3059 3061 3062 3063 3065 3066 3067 3068 3070 3071 3071 3072 3073 3073 3074 3075 3075 3076 3076 3077 3077 3078 3078 3079 3079 3078 3077 3076 3075 3075 3074 3074 3073 3073 3073 3072 3071 3070 3069 3067 3066 3063 3061 3059 3057 3055 3054 3053 3051 3049 3048 3046 3044 3042 3039 3036 3033 3031 3028 3024 3020 3016 3012 3008 3005 3002 2999 2995 2991 2986 2982 2978 2973 2969 2966 2965 2965 2966 2966
3050 3051 3052 3054 3055 3056 3057 3058 3060 3061 3062 3063 3064 3066 3067 3068 3069 3069 3070 3070 3071 3071 3071 3072 3072 3073 3073 3073 3074 3074 3073 3073 3072 3072 3071 3070 3070 3069 3069 3069 3068 3067 3066 3065 3063 3062 3060 3058 3056 3055 3053 3052 3051 3050 3048 3047 3045 3044 3042 3040 3038 3035 3032 3029 3027 3023 3020 3017 3013 3010 3007 3004 3002 2999 2996 2992 2990 2987 2984 2981 2979 2978 2978 2978 2978
3046 3048 3050 3051 3052 3053 3054 3056 3057 3058 3059 3060 3061 3062 3064 3065 3065 3066 3067 3067 3068 3068 3068 3068 3069 3069 3069 3069 3069 3069 3069 3068 3068 3067 3067 3066 3065 3065 3064 3063 3063 3062 3061 3059 3058 3057 3055 3054 3052 3051 3050 3049 3048 3047 3045 3044 3043 3042 3040 3038 3036 3034 3031 3028 3026 3023 3021 3018 3015 3012 3009 3007 3004 3001 2998 2996 2994 2992 2991 2989 2987 2986 2986 2986 2986
3042 3044 3046 3047 3049 3050 3052 3053 3054 3056 3057 3058 3059 3060 3061 3062 3062 3063 3064 3064 3065 3065 3065 3065 3065 3065 3065 3065 3065 3064 3064 3064 3063 3063 3062 3062 3061 3060 3059 3058 3058 3057 3056 3055 3053 3052 3051 3050 3049 3049 3048 3046 3045 3044 3043 3042 3041 3040 3038 3037 3035 3033 3031 3028 3026 3024 3022 3019 3017 3014 3012 3010 3008 3005 3002 2999 2997 2995 2994 2993 2992 2991 2990 2990 2990
3038 3039 3042 3044 3045 3047 3049 3051 3052 3053 3054 3055 3056 3057 3058 3059 3060 3060 3061 3061 3061 3062 3062 3062 3062 3062 3061 3061 3060 3060 3059 3059 3058 3058 3057 3057 3057 3056 3055 3054 3053 3052 3051 3050 3050 3049 3048 3047 3046 3045 3045 3044 3042 3041 3040 3039 3039 3038 3037 3036 3034 3032 3031 3028 3026 3024 3022 3020 3018 3016 3014 3013 3011 3009 3007 3004 3002 3000 2998 2997 2996 2995 2994 2993 2992
3034 3035 3037 3040 3043 3045 3047 3048 3050 3051 3052 3053 3054 3055 3056 3057 3057 3057 3058 3058 3058 3058 3058 3058 3058 3058 3057 3057 3056 3056 3055 3055 3054 3053 3053 3053 3052 3051 3050 3049 3048 3048 3047 3047 3046 3046 3045 3044 3043 3042 3041 3041 3040 3039 3037 3037 3036 3036 3035 3034 3033 3032 3030 3028 3026 3024 3022 3020 3018 3017 3015 3014 3012 3011 3009 3007 3006 3004 3003 3002 3001 2999 2998 2997 2996
3030 3033 3035 3037 3040 3042 3044 3045 3047 3048 3049 3050 3052 3052 3053 3054 3054 3054 3054 3055 3054 3054 3054 3054 3054 3053 3053 3052 3052 3052 3051 3050 3050 3049 3048 3048 3048 3047 3046 3045 3045 3044 3044 3043 3043 3042 3042 3041 3040 3039 3038 3037 3036 3035 3035 3034 3034 3034 3033 3032 3031 3030 3029 3027 3026 3024 3023 3021 3019 3017 3015 3014 3013 3011 3010 3009 3007 3006 3004 3003 3002 3001 3000 3000 2999
3030 3032 3033 3035 3036 3039 3041 3042 3044 3045 3046 3047 3048 3049 3050 3050 3050 3051 3051 3051 3051 3050 3050 3050 3049 3049 3049 3048 3048 3048 3047 3047 3046 3045 3044 3044 3043 3043 3043 3042 3041 3041 3041 3040 3040 3039 3039 3037 3036 3035 3035 3034 3033 3032 3032 3031 3031 3031 3030 3029 3028 3027 3026 3025 3024 3023 3022 3020 3019 3017 3015 3014 3013 3011 3010 3008 3007 3006 3004 3003 3002 3001 3001 3000 2999